GFSFLT1_con_mucape_030.txt.gz
CAPE
172 151 195 173 242 245 259 84 84 100 50 46 67 29 32 37 36 34 29 14 16 12 11 1 0 0 0 0 0 0 0 0
168 189 211 343 443 428 293 195 100 50 38 82 79 56 27 2 0 0 4 13 3 0 0 0 0 0 0 0 0 0 0 0
326 572 659 640 445 254 131 59 28 0 0 0 0 0 0 0 0 0 0 0 0 0 0 0 0 0 0 0 0 0 0 0
438 421 335 279 94 6 1 0 0 0 0 0 0 0 0 0 0 0 0 0 0 0 0 0 0 0 0 0 0 0 0 0
37 27 2 0 0 0 0 0 0 0 0 0 0 0 0 0 0 0 0 0 0 0 0 0 0 0 0 0 0 0 0 0
0 0 0 0 0 0 0 0 0 0 0 0 0 0 0 0 0 0 0 0 0 0 0 0 0 0 0 0 0 0 0 0
0 0 0 0 3 0 0 0 0 0 0 0 0 0 0 0 0 0 0 0 0 0 0 0 0 0 0 0 0 0 0 0
0 0 0 0 0 0 0 0 0 0 0 0 0 0 0 0 0 0 0 0 0 0 0 0 0 0 0 0 0 1 0 0
0 0 5 12 1 0 0 0 0 0 0 0 0 0 0 0 0 0 0 0 0 0 0 0 0 0 0 1 2 0 0 0
0 0 0 0 0 0 0 2 0 0 0 0 0 0 0 0 0 0 0 0 0 0 0 1 19 18 12 12 2 39 7 0
0 0 0 0 0 0 8 3 0 0 0 0 0 0 0 0 0 0 0 0 0 1 16 25 38 6 26 21 11 0 0 0
2 9 9 11 11 10 2 0 0 0 0 0 0 0 0 0 0 0 0 0 0 0 4 16 26 19 13 8 0 0 0 0
16 16 21 22 18 12 7 3 0 0 0 0 0 0 0 0 0 0 0 0 0 0 0 11 28 31 3 1 0 0 0 0
5 6 14 20 20 14 2 0 0 0 0 0 0 0 0 0 0 0 0 0 0 0 1 6 7 11 1 0 0 0 0 0
0 3 15 13 5 6 0 0 0 0 0 0 0 0 0 0 0 0 0 0 0 0 6 4 10 4 0 0 0 0 0 0
0 1 5 4 4 0 0 0 0 0 0 0 0 0 0 0 0 0 0 0 1 0 0 1 0 0 0 0 0 0 0 0
0 10 15 13 9 0 0 0 0 0 0 0 0 0 0 0 0 0 0 0 0 0 0 0 0 0 0 0 0 0 0 0
19 26 27 10 0 0 0 0 0 0 0 0 0 0 0 0 0 0 0 0 0 0 0 0 0 0 0 0 0 0 0 0
17 2 0 0 0 0 0 0 0 0 0 0 0 0 0 0 0 0 0 0 0 0 0 0 0 0 0 0 0 0 0 0

GFSFLT1_con_mucape_033.txt.gz
CAPE
161 152 129 159 171 121 147 214 151 52 6 38 38 63 45 39 49 26 7 2 0 0 0 0 0 0 0 0 0 0 0 0
114 169 214 156 131 104 156 171 152 90 101 51 16 14 0 0 0 0 0 0 0 0 0 0 0 0 0 0 0 0 0 0
248 372 330 322 291 244 60 167 41 23 4 0 0 0 0 0 0 0 0 0 0 0 0 0 0 0 0 0 0 0 0 0
494 468 214 244 305 264 139 14 0 0 0 0 0 0 0 0 0 0 0 0 0 0 0 0 0 0 0 0 0 0 0 0
206 111 30 0 1 0 0 0 0 0 0 0 0 0 0 0 0 0 0 0 0 0 0 0 0 0 0 0 0 0 0 0
25 10 0 0 0 0 0 0 0 0 0 0 0 0 0 0 0 0 0 0 0 0 0 0 0 0 0 0 0 2 4 0
0 3 0 0 0 0 2 1 0 0 0 0 0 0 0 0 0 0 0 0 0 0 0 0 0 0 0 0 12 24 37 23
4 3 0 0 2 7 2 0 0 0 0 0 0 0 0 0 0 0 0 0 0 0 0 0 0 0 1 5 15 37 64 32
0 0 1 0 0 0 0 0 0 0 14 0 0 0 0 0 0 0 0 0 0 0 0 0 0 7 5 20 25 43 91 102
0 0 0 0 0 0 0 0 5 20 7 0 0 0 0 0 0 0 0 0 0 0 0 0 0 1 14 32 36 41 60 85
0 0 0 0 0 0 3 8 16 9 2 1 0 0 0 0 0 0 0 0 0 0 0 0 0 6 18 11 6 17 6 28
0 0 0 4 9 10 10 2 9 0 1 0 0 0 0 0 0 0 0 0 0 0 0 0 0 6 9 3 7 0 0 0
0 4 16 15 12 13 28 24 0 0 0 0 0 0 0 0 0 0 0 0 0 0 0 0 0 8 9 2 1 1 0 0
6 17 23 10 13 28 25 10 0 0 0 0 0 0 0 0 0 0 0 0 0 3 3 20 7 0 2 0 0 0 0 0
5 8 7 14 19 17 7 0 0 0 0 0 0 0 0 0 0 0 0 0 2 12 22 18 0 0 0 0 0 0 0 0
0 0 9 18 9 7 0 0 0 0 0 0 0 0 0 0 0 0 0 0 0 3 0 0 0 0 0 0 0 0 0 0
0 5 16 16 11 0 0 0 0 0 0 0 0 0 0 0 0 0 0 0 0 0 0 0 0 0 0 0 0 0 0 0
0 12 25 11 1 3 0 0 0 0 0 0 0 0 0 0 0 0 0 0 0 0 0 0 0 0 0 0 0 0 0 0
8 20 15 6 0 0 0 0 0 0 0 0 0 0 0 0 0 0 0 0 0 0 0 0 0 0 0 0 0 0 0 0

GFSFLT1_con_mucape_036.txt.gz
CAPE
87 300 238 302 677 649 433 451 172 59 61 0 3 66 16 14 1 0 0 0 0 0 0 0 0 0 0 0 0 0 0 0
240 484 558 675 689 494 535 139 166 28 0 0 40 4 0 0 0 0 0 0 0 0 0 0 0 0 0 0 0 0 0 0
396 648 662 594 572 681 340 222 116 13 20 5 0 0 0 0 0 0 0 0 0 0 0 0 0 0 0 0 0 0 0 0
583 848 1024 694 612 621 583 664 405 48 0 0 0 0 0 0 0 0 0 0 0 0 0 0 0 0 0 0 0 1 0 0
822 668 743 845 744 734 542 207 38 1 0 0 0 3 3 0 0 0 0 0 0 0 0 0 0 0 1 5 3 7 16 0
206 81 106 119 157 120 6 0 0 0 0 0 0 0 0 0 0 0 0 0 0 0 0 0 0 9 22 33 30 44 42 40
28 12 1 0 0 0 0 0 0 0 0 0 0 0 0 0 0 0 0 0 0 1 8 10 28 47 66 83 81 60 66 72
1 0 0 0 0 0 0 0 0 0 0 0 0 3 1 0 0 0 0 0 10 20 22 25 39 63 84 79 80 70 76 77
0 0 0 0 0 0 0 0 0 0 0 4 8 10 0 0 0 0 0 1 0 0 0 0 2 9 35 72 74 75 71 76
0 0 0 0 0 0 0 0 0 0 6 13 10 4 0 0 0 0 0 0 0 0 0 0 1 10 33 66 72 83 79 75
0 0 0 0 0 0 0 3 4 5 8 0 0 0 0 0 0 0 0 0 0 0 0 0 0 10 36 73 60 53 67 43
0 0 0 0 0 6 12 11 7 5 2 0 0 0 0 0 0 0 0 0 0 0 0 1 7 21 40 40 25 50 30 19
0 0 0 2 7 13 13 8 8 0 2 0 0 0 0 0 0 0 0 0 0 0 7 14 24 8 23 32 27 24 6 23
0 0 2 6 14 24 23 7 2 1 0 0 0 0 0 0 0 0 0 0 0 3 7 7 7 22 30 19 0 0 0 23
0 4 6 10 20 22 12 2 0 0 0 0 0 0 0 0 0 0 0 0 1 4 11 14 11 12 0 0 0 0 29 20
0 6 1 7 11 10 7 1 0 0 0 0 0 0 0 0 0 0 0 2 5 12 13 15 16 0 0 4 11 15 17 1
0 0 0 0 3 12 12 0 0 0 0 0 0 0 0 0 0 0 0 9 16 23 27 26 16 0 0 0 0 0 0 0
0 0 0 0 11 12 8 0 0 0 0 0 0 0 0 0 0 0 2 6 17 19 22 32 4 0 0 0 0 0 0 0
0 0 0 7 12 8 6 0 0 0 0 0 0 0 0 0 0 0 4 5 14 16 15 27 0 0 0 0 0 0 0 0

GFSFLT1_con_mucape_039.txt.gz
CAPE
120 244 149 155 778 808 710 514 337 90 32 40 23 0 0 19 35 2 0 0 0 0 0 0 0 0 0 0 0 0 0 0
371 512 426 410 1092 842 636 487 207 117 46 1 0 0 0 2 0 0 0 0 0 0 0 0 0 0 0 0 0 0 0 0
521 770 761 789 1082 863 822 535 177 449 0 20 17 8 0 0 0 0 0 0 0 0 0 0 0 0 0 0 0 1 1 1
682 909 1015 987 863 721 948 586 601 279 204 7 1 0 0 0 0 0 0 0 0 0 0 0 0 0 0 3 9 12 0 15
859 1117 1089 1072 952 1039 724 463 351 91 1 0 0 2 8 9 3 10 0 0 0 0 0 0 1 3 9 18 20 31 45 0
1122 1238 1255 1145 930 726 469 309 45 1 0 0 1 20 23 9 1 0 0 0 4 0 1 5 7 16 27 66 93 78 79 59
644 688 442 304 413 324 49 6 7 0 0 2 13 18 1 13 4 1 0 0 1 5 8 13 18 18 36 49 63 50 60 70
208 104 24 20 26 4 0 0 2 3 11 19 3 0 2 2 1 0 0 0 0 0 1 0 0 0 2 21 54 93 67 98
15 0 0 0 0 0 0 4 11 17 11 0 0 0 0 0 0 0 0 0 0 0 0 0 0 0 5 21 57 110 80 122
0 0 0 0 0 3 1 14 7 0 0 0 2 8 10 17 0 0 0 0 0 0 0 0 0 0 1 12 48 89 102 84
0 0 0 0 1 6 9 4 0 0 1 4 6 14 13 0 0 0 0 0 0 0 0 0 0 1 5 18 42 56 60 90
0 0 1 3 7 8 2 0 1 8 17 7 11 2 0 0 0 0 0 0 0 0 0 0 1 6 12 11 36 43 33 30
13 2 4 4 0 0 0 5 10 14 20 4 0 0 0 0 0 0 0 0 0 0 0 2 6 6 12 15 15 7 19 12
25 5 2 1 0 3 6 7 8 24 30 15 0 0 0 0 0 0 0 0 0 0 2 8 12 12 6 16 28 28 20 24
9 2 1 0 0 4 6 1 16 28 26 0 0 0 0 0 0 0 0 0 0 2 7 15 15 18 19 21 15 15 19 22
0 0 0 0 0 12 6 1 22 40 17 0 0 0 0 0 0 0 0 0 3 8 11 13 14 22 9 2 1 2 11 11
0 0 0 0 0 14 0 8 14 21 16 0 0 0 0 0 0 0 0 0 3 12 16 19 13 13 0 0 0 0 0 4
0 0 0 0 0 0 2 8 17 29 0 0 0 0 0 0 0 0 0 1 5 13 5 4 20 19 0 0 0 0 0 1
0 0 0 0 0 0 13 13 26 4 0 0 0 0 0 0 0 0 0 6 8 18 14 9 16 9 0 0 0 0 0 0

GFSFLT1_con_mucape_042.txt.gz
CAPE
9 27 217 508 653 534 407 270 116 106 36 11 23 16 5 0 0 0 1 0 0 0 0 0 0 0 0 0 0 0 0 0
94 182 187 628 803 542 368 292 68 62 59 29 4 3 0 0 0 0 0 0 0 0 0 0 0 0 0 0 0 0 0 0
347 434 521 920 999 794 488 321 294 34 39 34 0 0 0 0 0 0 0 0 0 0 0 0 0 0 0 0 0 0 0 0
494 598 724 992 1149 704 548 360 169 173 21 27 0 0 0 0 0 0 0 0 0 0 0 0 0 0 0 0 0 2 0 0
570 779 893 1241 1127 731 730 545 354 405 149 0 0 0 0 0 0 1 0 0 0 0 0 0 0 0 0 0 0 0 2 0
631 867 1035 760 747 854 884 688 217 39 0 0 0 15 11 10 10 11 12 6 0 0 0 2 3 3 1 1 7 5 12 22
830 1014 1104 791 942 991 696 309 100 0 0 7 4 14 3 0 0 1 0 0 0 0 0 0 0 0 0 0 0 0 0 19
997 945 924 729 557 602 367 63 7 0 0 1 3 0 0 0 5 9 7 0 0 0 0 0 0 0 0 0 0 0 15 37
542 584 306 286 319 156 31 0 0 0 9 9 1 0 0 1 6 22 18 0 0 0 0 0 0 0 0 0 0 0 9 30
218 168 64 41 15 0 0 0 0 0 3 0 0 1 2 8 12 11 0 0 0 0 0 0 0 0 0 0 0 12 7 12
101 1 0 0 0 0 0 9 1 0 0 0 2 7 8 19 27 0 0 0 0 0 0 0 0 0 1 0 0 0 0 2
80 0 0 0 1 9 1 5 3 0 0 1 10 26 31 33 10 0 0 0 0 0 0 0 0 0 0 0 0 0 1 3
36 0 0 0 8 7 0 0 0 0 0 11 17 36 36 25 1 0 0 0 0 0 0 0 0 0 0 0 0 7 0 4
41 4 3 6 5 1 3 0 0 0 36 8 28 50 36 32 0 0 0 0 0 0 0 0 0 0 0 0 0 9 5 6
82 26 17 8 5 2 0 0 0 15 40 9 22 36 4 18 0 0 0 0 0 0 0 0 0 0 1 10 12 0 0 0
36 155 64 60 33 1 0 0 5 34 12 9 36 8 11 0 0 0 0 0 0 0 0 8 0 0 5 1 1 0 0 0
7 66 88 84 39 1 0 0 3 39 24 48 18 24 0 0 0 0 0 0 0 0 0 1 0 0 3 0 0 0 0 0
3 16 21 17 5 1 0 0 0 0 6 27 24 2 1 0 0 0 0 0 0 0 0 3 0 0 2 4 2 0 0 0
0 9 15 7 8 2 0 0 0 2 21 27 16 0 0 0 0 0 0 0 0 0 1 2 0 4 2 6 0 0 0 0

GFSFLT1_con_mucape_045.txt.gz
CAPE
68 68 117 176 245 298 428 390 370 314 206 117 49 35 22 0 0 0 0 0 0 0 0 0 0 0 0 0 0 0 0 0
46 104 195 279 373 401 429 408 361 200 55 38 27 22 3 10 8 0 0 0 0 0 0 0 0 0 0 0 0 0 0 0
2 111 378 424 468 460 462 367 178 26 25 19 22 5 0 0 0 0 0 0 0 0 0 0 0 0 0 0 0 0 0 0
15 83 586 541 559 613 506 363 225 71 60 19 26 0 0 0 0 0 0 0 0 0 0 0 0 0 0 0 0 0 0 0
184 302 714 785 771 775 598 490 334 80 36 4 0 0 0 0 0 0 0 0 0 0 0 0 0 0 0 0 0 0 0 0
216 392 590 868 812 875 650 466 232 171 76 2 0 0 0 0 0 0 0 0 2 0 0 0 0 0 0 0 0 0 0 0
419 580 884 1003 969 789 498 324 243 257 29 0 0 0 0 0 0 3 8 8 2 4 0 0 0 0 0 0 0 0 0 0
531 819 796 835 729 629 532 507 364 136 0 0 0 0 0 1 2 12 19 15 1 2 0 0 0 0 0 0 0 0 0 0
842 946 939 855 727 572 479 457 191 53 2 0 0 0 0 3 8 13 19 13 2 0 0 0 0 0 0 0 0 0 0 0
863 935 829 754 708 550 395 229 103 1 0 0 0 0 5 15 23 14 13 13 12 0 0 0 0 0 0 0 0 0 0 1
645 640 562 381 343 307 188 76 39 0 0 0 0 0 8 21 19 6 0 0 20 0 0 0 0 0 0 0 0 0 0 0
389 298 247 187 184 208 123 22 0 1 0 0 6 18 25 20 19 16 6 1 0 0 0 0 0 0 0 0 0 0 0 0
245 137 40 0 0 0 0 0 4 5 5 3 36 49 25 34 16 13 13 0 0 0 0 0 0 0 0 0 0 0 0 0
211 125 53 0 0 0 4 11 28 36 59 46 56 31 45 37 25 8 3 0 0 0 0 0 0 0 0 0 0 0 0 0
192 117 36 20 33 32 27 14 50 101 102 76 46 44 39 46 11 1 0 0 0 0 0 0 0 0 0 0 0 0 0 0
263 114 62 40 50 49 50 53 85 108 81 61 41 27 31 9 6 0 0 0 0 0 0 0 0 0 2 3 0 4 6 5
49 85 103 71 66 62 79 88 95 89 38 44 34 10 11 2 0 0 3 0 0 0 0 0 0 0 0 4 0 5 10 1
0 43 72 81 86 67 56 34 46 81 55 42 14 6 5 0 0 0 0 0 0 0 0 0 0 0 4 1 0 0 0 0
0 0 29 61 64 58 48 56 61 47 38 8 0 0 2 0 0 0 0 0 0 0 0 0 0 0 0 0 0 4 7 0

GFSFLT1_con_mucape_048.txt.gz
CAPE
349 253 263 168 65 156 264 337 301 302 276 222 179 145 84 19 0 0 0 0 0 3 0 0 0 0 0 0 0 0 0 0
309 228 172 110 99 190 203 377 393 358 269 208 150 92 21 12 15 15 6 0 2 0 0 0 0 0 0 0 0 0 0 0
232 221 165 183 245 319 393 394 415 362 248 157 87 34 42 45 27 9 0 0 0 0 0 0 0 0 0 0 0 0 0 0
125 143 203 280 328 334 452 463 385 372 314 79 31 43 45 0 0 0 0 0 0 0 0 0 0 0 0 0 0 0 0 0
93 166 314 296 288 344 483 488 436 352 88 27 62 34 0 0 0 0 0 0 0 0 0 0 0 0 0 0 0 0 0 0
35 300 330 325 335 403 524 552 448 394 172 81 34 12 0 0 0 0 0 0 0 0 0 0 0 0 0 0 0 0 0 0
71 415 426 440 510 538 562 572 562 387 138 125 0 0 0 0 0 0 0 0 0 0 0 1 0 0 0 0 0 0 0 0
161 441 642 654 699 693 763 593 477 225 136 6 4 0 0 0 0 1 2 0 6 13 4 0 2 0 0 0 0 0 0 0
237 550 677 719 829 858 834 624 403 208 222 84 32 0 0 0 1 1 0 11 14 0 0 0 1 3 0 0 0 0 0 0
335 477 744 823 916 919 670 472 348 240 316 43 3 4 38 20 8 22 57 9 16 6 2 0 0 0 0 0 0 0 0 0
590 654 686 814 897 710 581 554 610 463 186 48 33 68 71 44 52 47 89 30 0 2 0 2 0 0 0 0 0 0 0 0
825 910 997 1009 772 584 435 500 484 306 158 98 99 61 74 71 47 55 14 0 4 6 0 0 0 0 0 0 0 0 0 0
689 875 915 844 713 472 242 223 168 70 57 97 85 61 71 88 35 74 15 16 18 0 0 0 0 0 0 0 0 0 0 0
483 446 509 572 396 364 349 369 150 57 35 26 56 71 68 37 40 32 5 10 22 1 0 0 0 0 0 0 0 0 0 0
413 337 289 248 259 246 189 44 31 52 36 47 55 68 47 67 80 17 3 10 2 0 0 0 0 0 0 0 0 3 2 0
388 324 277 196 131 75 57 49 42 45 67 55 55 51 74 78 63 43 2 2 0 0 0 0 0 0 0 0 0 0 4 0
69 311 221 112 70 52 56 38 55 62 89 119 121 49 44 37 44 29 0 0 0 0 0 0 0 0 0 0 2 4 0 0
7 3 19 55 67 55 65 71 65 85 110 87 65 55 66 55 23 0 0 0 0 0 0 0 0 0 0 0 2 1 0 0
0 12 27 64 101 121 85 80 79 71 65 47 50 37 25 12 2 0 0 0 0 0 0 0 0 0 0 0 1 0 0 8

GFSFLT1_con_mucape_051.txt.gz
CAPE
346 182 117 280 309 330 359 320 21 37 108 219 301 368 382 281 119 47 2 0 0 13 29 1 0 0 0 0 0 0 0 0
446 258 234 354 334 271 192 148 86 72 206 290 338 384 306 169 57 7 0 2 19 0 0 0 0 0 0 0 0 0 0 0
492 344 331 355 372 219 126 111 194 272 354 381 379 266 155 65 22 22 39 48 11 0 0 0 0 0 0 0 0 0 0 0
656 450 386 280 359 89 149 186 256 311 378 358 294 184 54 40 49 64 81 20 0 0 0 0 0 0 0 0 0 0 0 0
474 289 373 287 344 120 234 205 278 296 351 372 265 128 63 57 75 40 2 0 0 0 0 0 0 0 0 0 0 0 0 0
310 345 360 271 253 127 237 202 237 334 389 324 303 197 60 57 18 0 0 0 0 0 0 0 3 0 7 1 0 0 0 0
172 217 219 192 154 138 219 208 263 281 430 393 274 89 50 53 2 0 0 0 0 1 3 6 19 7 6 3 0 0 0 0
138 133 176 151 107 134 221 231 329 415 512 403 130 81 14 8 0 0 0 0 0 11 2 18 1 4 7 5 0 0 0 0
110 213 255 260 202 244 308 359 492 534 422 219 46 3 15 2 1 5 5 5 3 2 8 0 0 0 0 1 0 0 0 0
84 255 376 379 361 394 423 444 570 484 412 212 109 27 21 29 47 45 39 22 30 29 1 0 11 8 4 0 0 0 0 0
116 278 449 472 496 539 647 697 718 566 341 199 201 114 69 30 27 37 25 8 1 2 6 0 4 0 0 0 0 0 0 0
185 357 477 559 602 636 774 765 654 472 215 226 318 154 89 59 29 26 45 1 8 0 1 2 3 14 0 0 0 0 0 0
480 551 607 632 756 823 953 871 619 552 358 419 267 128 55 42 38 72 23 0 1 4 1 0 4 5 0 0 0 0 0 0
696 696 734 786 841 955 970 627 595 614 480 283 133 79 86 49 67 58 20 11 25 15 2 4 3 1 0 0 0 0 0 0
692 802 882 949 993 946 789 583 408 330 140 72 62 61 60 62 54 73 75 63 5 17 0 9 0 0 0 0 0 0 0 0
401 506 567 702 778 735 560 227 111 64 63 38 52 73 66 66 48 50 53 34 22 12 6 0 0 0 0 0 0 0 0 0
77 318 481 469 377 366 211 147 72 85 44 56 67 71 52 72 52 53 16 8 5 0 0 0 0 0 0 0 0 0 0 0
0 0 15 45 86 78 86 103 71 59 73 65 59 61 53 47 32 15 2 0 0 0 0 0 0 0 0 0 0 0 1 1
0 4 1 4 10 23 35 50 91 85 81 51 79 42 33 31 15 23 4 0 0 0 0 0 0 0 0 0 0 0 0 0

GFSFLT1_con_mucape_054.txt.gz
CAPE
148 102 17 93 183 153 196 246 158 0 0 0 1 100 244 346 333 234 138 144 85 26 12 37 57 6 0 0 0 0 0 0
248 187 104 93 202 190 125 211 73 0 0 9 76 164 223 314 218 142 129 30 7 26 45 25 0 0 0 0 0 0 0 0
355 377 209 134 148 291 287 264 323 36 42 53 79 143 243 244 267 181 71 31 39 58 4 0 0 0 0 0 0 0 0 0
564 485 447 310 171 326 381 379 439 104 49 58 94 198 246 185 172 119 45 47 58 36 0 0 0 0 0 0 0 0 0 0
598 594 562 469 294 376 475 317 218 65 37 36 161 277 265 224 109 46 47 75 57 0 0 0 0 0 0 0 0 0 0 0
683 684 628 524 375 407 451 407 145 59 73 156 267 335 279 183 45 48 56 46 3 1 0 0 0 1 0 3 0 0 0 0
872 743 726 642 501 457 389 413 148 115 141 209 276 279 189 131 38 63 88 3 6 0 0 0 0 6 17 6 3 7 2 4
684 398 482 486 316 412 345 373 235 164 93 117 220 286 121 94 45 82 91 5 0 0 0 2 10 12 17 1 5 1 0 2
480 398 294 336 243 304 305 296 250 130 99 81 198 265 274 115 65 28 9 0 4 1 18 12 21 19 3 5 0 3 7 7
477 460 377 307 198 177 145 171 142 114 124 124 288 331 88 79 10 0 18 21 35 26 2 1 0 0 1 5 1 6 8 0
101 310 365 310 189 137 168 146 110 144 190 244 337 270 128 60 13 26 38 45 28 20 12 0 14 0 1 0 1 4 2 0
46 47 135 198 208 203 218 228 251 307 376 471 425 271 208 123 67 80 77 62 52 56 28 0 8 14 3 0 0 0 0 0
139 194 203 291 321 353 400 408 386 434 644 658 463 350 290 246 134 68 55 62 71 41 0 2 2 10 0 0 0 0 0 0
305 314 334 376 386 392 408 475 563 635 651 543 407 280 222 232 110 70 76 65 42 2 1 7 2 0 1 0 0 0 0 0
454 472 499 501 522 538 577 661 686 587 417 336 242 167 175 80 92 76 58 30 27 9 0 0 0 0 0 0 0 0 0 0
248 536 606 657 721 732 704 652 579 434 309 235 148 171 60 22 57 56 28 40 0 0 1 3 0 0 0 0 0 0 0 0
21 116 295 368 414 443 476 423 281 137 121 87 94 88 59 27 40 47 43 7 31 8 0 0 0 0 0 0 0 0 0 0
0 0 0 2 10 33 35 48 61 71 65 62 77 70 61 56 45 43 44 23 7 4 0 0 0 0 0 0 0 0 0 0
0 0 0 0 0 0 0 0 0 35 78 74 54 32 34 60 62 54 6 1 0 0 0 0 0 0 0 0 0 0 0 0

GFSFLT1_con_mucape_057.txt.gz
CAPE
160 97 105 148 95 167 323 300 231 170 0 0 9 33 55 55 208 304 253 142 76 95 42 19 13 0 0 0 0 0 0 0
145 139 116 162 230 215 285 246 228 244 9 2 0 5 19 171 310 304 167 159 138 49 28 5 2 6 0 0 0 0 0 0
236 197 149 160 204 266 217 213 246 262 27 22 21 17 17 176 285 239 130 80 55 16 6 12 0 0 0 0 0 0 0 0
467 262 241 204 190 248 236 203 183 221 64 40 30 21 43 159 223 188 44 100 54 20 23 27 0 0 0 0 0 0 0 0
628 561 381 330 222 183 244 222 263 235 355 45 32 29 24 162 160 82 51 86 66 54 19 1 0 0 0 0 3 2 2 2
635 773 700 450 422 275 199 181 401 382 427 400 21 19 29 66 129 64 49 60 54 43 21 0 0 0 0 0 0 8 6 5
534 723 712 601 605 554 440 264 373 449 364 395 89 34 52 74 90 111 67 27 47 69 0 0 0 0 0 1 2 12 10 1
370 568 564 650 708 709 600 417 414 508 525 321 81 47 77 156 237 181 198 46 49 52 1 0 0 4 6 8 3 0 0 1
498 401 526 749 879 818 782 640 489 500 469 452 79 44 95 181 184 198 310 58 50 10 0 3 10 29 4 4 1 0 0 1
281 647 594 662 758 556 637 657 541 485 412 427 173 74 71 95 129 260 137 39 17 14 12 22 7 22 6 2 1 12 6 1
0 44 322 656 594 543 441 399 321 341 343 320 298 96 88 197 230 211 58 20 14 25 6 28 53 29 11 2 5 8 1 0
35 122 159 206 384 455 342 224 186 201 217 213 152 138 189 236 391 65 59 15 2 15 34 40 10 15 12 3 0 4 1 0
68 94 136 261 331 327 297 277 371 357 270 236 234 264 339 281 158 75 59 10 15 36 49 41 10 0 25 0 1 0 0 0
102 119 132 302 395 388 333 263 322 365 383 465 381 295 314 209 131 114 123 58 66 49 39 3 4 0 0 5 0 0 0 0
120 206 171 162 237 287 340 410 464 514 600 477 486 260 115 106 123 51 25 17 52 47 6 1 7 6 1 0 0 0 0 0
0 126 408 473 528 579 608 606 657 670 525 321 159 100 45 86 104 30 1 14 32 8 1 3 1 0 0 0 0 0 0 0
3 16 110 300 402 430 438 416 359 287 136 73 51 22 39 4 10 6 1 1 10 6 0 0 5 0 0 0 0 0 0 0
0 0 0 5 22 41 53 52 42 52 39 9 1 2 5 5 11 9 2 16 4 0 0 0 0 0 0 0 0 0 0 0
0 0 0 0 0 0 0 0 0 0 0 2 6 7 11 12 20 26 34 15 1 0 0 0 0 0 0 0 0 0 0 0

GFSFLT1_con_mucape_060.txt.gz
CAPE
475 361 207 44 29 35 85 84 203 603 501 282 111 223 189 309 529 685 717 437 110 36 49 31 13 9 0 0 0 0 0 0
589 384 422 256 128 201 318 355 484 728 569 220 83 113 142 255 464 615 335 229 59 54 58 17 2 5 2 0 0 0 0 0
583 557 406 475 272 267 335 504 801 690 495 186 32 40 164 194 419 353 280 113 102 63 57 4 2 4 0 1 0 0 0 0
710 615 643 556 534 478 411 509 753 633 600 278 102 79 186 275 300 191 99 137 122 85 33 4 2 5 4 0 0 0 0 0
788 884 789 816 655 566 537 578 704 705 741 438 196 66 61 156 340 226 164 86 73 61 22 7 10 13 1 0 0 0 0 0
725 1007 1017 960 874 851 739 581 651 733 716 606 416 209 17 180 392 222 74 74 38 47 18 56 74 47 3 0 0 0 1 1
760 663 1163 1213 1182 1126 1003 857 772 809 826 723 730 577 339 343 127 90 34 47 37 29 44 77 69 33 0 0 0 6 14 2
1103 852 1021 1314 1419 1373 1194 1116 963 883 1028 931 908 849 655 194 46 82 52 77 90 108 143 80 59 6 0 0 9 10 4 0
1073 1071 1112 1246 1437 1473 1353 1140 1219 1021 1046 920 849 707 536 63 29 46 78 158 215 113 94 57 33 0 1 4 8 7 1 0
711 962 1080 1367 1447 1472 1448 1196 1135 1138 1080 1038 753 401 247 57 7 1 81 137 84 122 59 34 5 6 0 7 0 8 1 4
234 505 898 1099 1285 1360 1453 1408 1364 1306 1196 882 543 442 298 97 59 79 61 71 133 41 50 25 14 5 23 11 2 0 6 0
175 199 318 588 916 1009 1086 1118 1126 1148 1064 916 417 402 325 319 150 104 88 158 213 84 46 6 1 21 28 7 0 0 0 0
291 261 288 417 626 805 913 915 902 896 926 754 461 400 340 208 144 103 93 83 65 44 0 0 0 0 10 8 0 0 0 0
512 507 552 677 780 841 904 935 921 894 655 656 724 462 374 240 91 110 105 106 37 44 4 0 17 16 1 1 3 1 1 0
461 780 831 925 993 1005 790 613 516 667 696 822 881 546 589 250 189 186 111 71 22 9 3 9 11 11 0 0 1 0 0 0
21 668 955 1012 1042 925 541 546 705 709 696 648 566 484 217 112 67 74 104 77 15 1 14 9 2 0 0 0 0 0 0 0
6 227 545 488 530 576 578 585 526 462 486 388 242 151 84 62 43 0 3 0 2 0 2 3 2 0 0 0 0 0 0 9
0 24 91 172 234 224 174 149 125 100 79 93 80 9 0 0 0 0 8 8 3 4 0 0 0 0 0 0 0 0 3 14
0 0 0 0 0 0 0 0 0 0 0 0 0 0 0 0 2 1 0 2 2 3 1 0 0 0 0 0 0 0 0 0

GFSFLT1_con_mucape_066.txt.gz
CAPE
113 98 41 12 0 0 0 0 5 54 153 206 134 68 78 70 73 164 183 69 258 245 68 49 17 0 2 6 0 0 0 0
263 136 5 0 0 0 0 6 85 108 25 31 4 64 12 0 0 33 345 411 436 288 77 64 25 5 3 0 0 0 0 0
142 53 2 0 7 51 59 58 120 76 21 0 0 4 5 0 10 44 345 409 445 401 317 169 57 0 0 0 2 0 5 0
256 148 69 44 3 22 27 37 33 90 80 20 1 3 0 0 8 111 461 503 411 341 264 315 46 10 10 19 18 7 6 11
258 280 111 80 35 48 42 3 0 51 203 180 84 0 0 0 0 64 507 532 416 318 274 182 71 20 17 31 29 1 4 40
388 223 316 151 161 110 164 214 125 137 185 245 217 49 7 0 44 56 445 379 281 206 174 176 72 1 18 22 20 30 23 23
578 608 536 535 425 426 252 333 307 329 413 345 441 181 105 13 55 97 384 314 217 203 156 87 21 1 12 60 50 33 1 1
313 692 815 781 759 727 654 472 418 389 626 610 420 762 324 289 124 230 427 338 264 177 127 9 16 25 27 50 17 2 0 0
407 257 821 869 877 961 970 845 674 582 641 909 903 711 956 532 556 491 410 312 168 77 84 11 7 25 71 51 53 0 0 0
596 615 483 906 900 1074 1186 1072 983 812 752 784 892 1078 865 937 929 597 339 242 192 124 132 37 10 47 58 10 1 0 1 0
252 643 803 658 1031 1116 1252 1250 1221 1166 1110 1086 1111 1175 1201 1104 1086 889 578 337 266 148 121 105 37 65 70 28 3 0 0 0
287 499 891 919 914 1127 1476 1476 1362 1295 1183 1190 1121 1417 1206 961 794 636 545 392 237 130 108 131 180 23 1 1 4 3 14 2
361 502 521 670 1234 1247 1656 1754 1693 1595 1486 1330 1369 1243 953 694 720 537 396 365 315 228 299 208 30 49 27 21 0 16 7 21
248 461 565 660 798 1304 1613 1760 1741 1609 1394 1131 1016 920 710 535 409 327 297 272 243 158 180 122 63 50 24 22 4 2 17 2
86 301 567 796 1022 1194 1307 1314 1298 1137 1043 1033 963 943 581 385 369 355 249 258 197 285 125 151 20 37 20 18 8 6 0 12
35 378 696 998 1122 1048 1099 1132 1080 991 930 861 786 640 381 430 357 224 229 251 205 99 82 26 17 17 10 7 4 11 10 6
94 223 883 1258 1176 1172 1079 1084 1042 861 726 757 700 455 448 225 206 140 117 82 67 10 7 10 10 0 4 6 12 3 0 0
237 555 1237 1120 1074 992 695 569 325 291 369 329 427 178 121 81 56 40 6 0 2 0 0 0 0 0 0 0 0 0 0 0
356 748 727 577 575 263 240 175 326 250 190 96 60 27 2 0 0 0 0 0 0 0 0 0 0 0 0 0 0 0 0 0

GFSFLT1_con_mucape_072.txt.gz
CAPE
99 0 1 6 6 17 13 26 17 14 11 2 5 16 52 65 72 108 75 85 24 52 12 1 0 0 0 0 0 0 0 0
57 0 0 0 0 12 19 13 20 21 4 1 0 5 5 20 62 67 100 101 56 45 28 15 3 0 0 0 0 0 0 0
53 0 0 0 0 0 0 0 0 1 5 3 0 3 0 12 8 6 1 6 37 29 16 22 1 0 0 0 0 0 0 2
65 16 0 0 0 0 0 0 0 0 0 0 0 0 0 0 0 0 0 7 3 35 52 47 43 29 9 0 0 2 3 16
144 29 13 0 0 0 0 0 0 0 0 0 0 0 0 0 0 0 0 18 19 15 38 25 47 34 33 23 43 35 18 37
209 110 82 0 0 0 0 0 0 0 0 0 0 0 0 0 0 0 0 10 49 45 75 81 90 115 112 116 92 35 36 23
227 150 148 50 0 0 0 0 0 0 0 0 0 0 0 0 0 0 0 12 44 115 110 152 185 251 193 200 102 63 46 19
238 187 193 164 0 0 0 0 0 0 0 0 0 0 0 0 0 0 0 14 100 133 179 243 276 317 205 201 129 96 73 45
282 231 227 219 246 0 0 0 0 0 0 0 1 15 0 11 20 16 0 0 35 131 232 314 335 264 208 136 112 92 71 40
325 269 258 255 263 292 5 0 0 0 0 2 3 2 53 77 99 58 59 78 48 150 233 345 292 234 108 98 155 114 57 32
292 308 299 295 297 321 360 238 88 2 0 0 41 71 90 112 78 112 108 65 62 114 149 179 296 235 130 152 124 61 66 39
205 280 312 306 333 342 380 404 370 275 156 65 46 110 123 113 91 48 82 80 61 40 73 70 220 228 107 118 148 61 84 21
97 184 245 317 317 361 318 372 404 302 221 129 77 71 88 152 191 132 131 72 1 19 164 201 260 147 264 250 43 80 57 7
9 58 123 240 299 327 382 417 389 264 243 299 392 267 154 194 136 232 223 42 4 31 194 241 315 230 280 155 108 33 7 15
7 70 172 301 438 508 556 572 575 502 516 357 197 437 514 347 316 259 167 75 126 312 318 440 191 94 126 90 91 31 7 6
19 38 374 485 570 621 700 714 728 740 716 434 118 81 121 254 261 228 204 192 288 194 300 130 92 118 104 51 38 7 11 11
43 72 354 287 459 784 823 865 905 920 823 614 183 101 235 316 145 117 173 154 193 79 96 75 117 92 19 2 5 10 13 17
30 78 198 257 242 313 629 849 901 843 704 455 129 367 549 259 111 35 108 49 61 45 36 15 2 2 2 3 3 4 2 0
125 171 178 247 262 288 325 437 472 446 351 199 159 145 158 139 77 34 43 28 9 12 1 3 5 3 0 0 0 0 0 0

GFSFLT1_con_mucape_075.txt.gz
CAPE
71 45 0 1 2 6 8 11 4 3 6 13 1 18 51 68 49 38 6 0 0 0 0 0 0 0 17 8 6 6 5 0
106 40 0 1 5 10 0 1 3 0 0 18 27 15 56 59 81 68 30 6 0 0 0 0 0 0 6 8 13 28 20 0
230 17 0 0 0 0 0 0 5 13 8 4 3 41 69 61 88 65 38 46 13 1 28 10 20 23 7 0 0 3 1 0
299 33 0 0 0 0 0 0 0 13 15 8 7 28 86 54 66 55 63 32 70 77 55 43 52 39 13 0 0 4 13 15
274 96 0 0 0 0 0 0 0 0 1 0 3 0 0 0 0 0 1 8 32 57 97 71 77 33 22 13 12 18 34 43
211 191 21 0 0 0 0 0 0 0 0 0 0 0 0 0 0 0 0 0 16 22 34 59 57 49 55 35 53 34 55 61
105 193 90 12 0 0 0 0 0 0 0 0 0 0 0 0 0 0 0 0 0 32 56 55 66 99 116 76 91 98 99 88
109 156 178 34 10 0 0 0 0 0 0 0 0 0 0 0 0 1 0 0 0 5 43 73 67 64 99 119 163 177 144 109
156 201 205 40 56 4 0 0 0 0 0 0 0 0 0 0 0 10 8 6 2 6 34 29 61 82 122 163 279 248 122 78
206 258 208 141 94 116 8 0 0 0 0 0 0 0 0 1 23 25 12 1 2 2 53 66 111 129 168 257 127 112 76 99
247 262 275 210 146 164 154 92 2 0 0 0 0 0 0 8 7 0 1 10 42 47 73 81 108 130 133 171 116 126 96 100
209 286 304 251 196 199 185 194 199 41 7 0 0 0 0 6 9 8 43 48 59 100 121 84 69 8 9 115 119 164 126 138
98 205 308 271 273 288 294 271 253 209 129 45 2 0 0 0 2 36 70 11 31 58 48 49 17 0 11 50 79 164 140 89
62 138 237 229 270 323 339 338 309 263 246 255 75 45 58 35 42 56 54 47 34 39 2 5 61 53 176 195 144 205 116 60
46 76 107 135 172 252 294 323 355 346 308 280 273 147 152 118 131 167 190 72 108 21 82 80 56 69 61 161 257 116 121 62
14 55 78 112 136 136 167 240 347 414 440 416 391 315 212 192 273 369 382 254 166 155 118 51 91 179 278 217 115 93 54 54
5 76 89 102 118 135 145 251 366 472 567 541 510 399 456 318 438 339 539 586 312 392 238 131 250 190 201 108 57 53 45 32
1 20 80 127 164 179 219 291 362 474 591 578 499 530 210 124 117 179 214 246 206 146 158 223 221 79 84 80 50 80 17 4
3 19 42 118 145 172 316 387 437 531 646 649 610 406 174 120 156 310 218 157 83 83 161 138 115 69 20 15 6 4 11 8

GFSFLT1_con_mucape_078.txt.gz
CAPE
127 12 0 5 2 12 39 4 5 6 4 2 3 6 17 28 36 44 36 0 0 4 2 2 12 27 33 47 36 15 5 1
49 24 6 10 6 7 10 10 27 1 3 9 18 0 0 44 36 51 90 4 0 0 0 0 0 0 10 11 18 22 12 0
91 87 29 2 2 2 0 11 6 5 15 6 2 3 0 10 65 48 57 0 0 0 0 0 0 0 1 3 2 11 17 9
242 149 56 2 2 5 3 1 13 4 5 4 6 16 33 55 80 87 74 37 34 5 0 0 7 4 7 5 0 4 7 6
297 210 100 0 0 1 1 1 2 11 6 2 4 5 4 0 42 94 71 71 70 21 8 19 64 37 16 19 11 4 2 0
192 209 154 0 0 0 0 0 0 0 4 8 6 0 2 4 24 43 64 68 41 60 75 87 84 67 63 57 25 3 2 2
55 118 205 42 0 0 0 0 0 0 0 0 0 0 0 0 0 0 0 6 19 38 43 69 101 97 64 72 74 40 37 10
0 83 195 124 12 0 0 0 0 0 0 0 0 0 0 0 0 0 0 0 0 3 17 35 44 49 54 69 76 65 58 53
0 82 161 184 86 0 0 0 0 0 0 0 0 0 0 0 0 0 0 0 0 0 0 0 8 13 17 29 24 37 87 86
2 35 162 192 170 74 2 0 0 0 0 0 0 0 0 0 0 0 0 0 0 0 0 0 0 0 0 0 11 21 49 91
2 17 117 197 225 114 68 58 2 0 0 0 0 0 0 0 0 0 0 0 1 10 1 0 0 0 1 39 47 38 36 101
15 28 63 160 257 244 142 133 130 54 0 0 0 0 0 0 0 0 0 0 0 1 0 1 39 68 92 53 34 32 22 96
9 53 94 137 166 263 271 198 164 174 175 36 0 4 0 0 0 0 0 0 0 12 35 52 43 32 44 66 29 28 9 7
4 37 60 80 116 173 229 221 252 239 212 162 62 24 2 0 11 0 1 1 13 20 52 47 44 21 21 6 12 1 6 27
6 39 64 68 98 129 152 150 167 205 236 244 228 107 37 29 24 31 41 44 40 44 62 104 97 107 24 22 56 80 60 123
26 28 52 83 93 109 121 115 135 137 137 185 243 202 136 101 93 74 106 123 132 157 139 180 132 164 74 134 65 72 48 113
22 37 36 61 56 78 93 102 97 98 105 135 204 304 287 188 126 153 181 159 154 187 320 318 161 103 106 152 62 108 119 86
20 2 17 43 63 59 72 81 94 109 130 164 244 343 324 289 244 254 356 509 206 95 190 333 327 347 390 155 104 90 49 36
26 34 6 50 80 100 99 86 98 136 186 246 341 424 400 361 257 298 140 60 28 132 39 131 183 89 70 55 47 75 112 61

GFSFLT1_con_mucape_081.txt.gz
CAPE
2 32 0 5 2 7 16 18 10 7 0 4 5 5 18 86 70 31 18 41 38 17 4 6 3 3 25 30 26 13 8 1
1 0 0 0 5 1 17 17 8 1 1 1 0 6 0 93 63 29 36 22 11 13 0 0 2 7 32 18 37 38 25 20
26 0 0 0 4 12 0 1 5 1 6 7 3 28 44 52 42 43 37 29 3 0 0 2 0 4 0 21 11 7 16 24
61 73 53 22 5 4 0 0 3 3 0 5 3 14 21 8 0 0 60 26 2 0 1 1 2 0 1 2 0 0 9 6
101 132 46 24 0 5 0 5 4 11 1 8 0 0 0 0 0 0 31 29 2 0 13 9 18 4 0 1 8 1 0 1
165 134 83 18 0 3 0 0 0 0 7 3 0 0 2 14 2 4 68 47 31 8 19 21 27 5 17 24 13 19 2 0
198 92 108 79 0 2 3 0 0 0 0 0 0 6 10 4 2 62 78 64 42 53 26 7 13 14 26 46 43 39 28 10
118 36 88 120 4 1 0 2 0 0 0 0 3 0 6 2 18 34 36 35 7 21 23 61 55 43 65 85 68 50 47 47
90 58 61 117 33 0 0 0 0 0 0 0 0 1 2 2 0 10 3 20 0 0 11 42 43 48 51 57 51 36 27 28
30 40 30 100 98 0 0 0 5 0 0 0 0 0 0 0 0 0 0 0 0 0 0 0 16 18 33 54 94 49 8 15
5 30 7 106 147 47 2 0 0 0 0 0 0 0 0 0 0 0 0 0 0 0 0 0 1 25 50 50 38 37 30 32
4 28 21 61 137 178 67 33 2 0 0 0 0 0 0 0 0 0 0 0 0 0 0 1 14 27 31 23 15 37 49 72
16 34 32 32 108 180 200 104 68 78 7 0 0 0 0 0 0 0 1 1 0 0 0 2 13 5 9 15 43 58 63 89
15 42 46 63 81 149 222 251 215 154 123 151 8 0 1 0 0 0 1 1 1 0 0 0 15 3 21 55 27 47 46 53
0 60 94 85 109 130 171 233 278 293 270 253 214 69 1 2 0 0 9 0 2 8 0 1 12 16 30 64 59 50 48 3
0 3 42 69 63 86 130 170 200 219 205 184 195 210 193 105 27 7 12 20 41 49 55 86 85 81 73 61 95 289 21 60
2 4 38 47 75 84 82 123 122 121 109 92 75 99 163 169 112 82 60 62 73 108 112 135 136 293 478 179 109 53 57 209
2 1 0 31 36 51 79 87 97 100 99 82 62 74 136 190 134 108 106 99 101 169 254 259 168 169 107 164 123 159 164 57
2 0 0 0 1 16 43 53 65 84 90 91 94 92 163 255 256 203 176 110 230 228 168 104 7 62 93 157 89 89 63 71

GFSFLT1_con_mucape_084.txt.gz
CAPE
215 2 4 9 7 12 0 2 30 24 1 1 2 2 0 1 34 29 10 0 2 13 7 21 13 0 0 0 0 0 0 0
300 3 0 0 14 5 0 8 26 12 7 6 2 4 0 0 38 39 34 12 8 15 17 1 4 2 0 0 1 3 1 1
316 27 13 1 14 9 0 31 0 14 5 6 12 6 1 0 41 58 42 13 0 13 20 0 3 0 6 15 8 15 18 13
435 211 46 59 19 21 4 0 1 4 3 5 2 8 8 0 107 52 56 47 10 17 8 17 22 77 62 39 5 13 10 4
583 375 150 98 15 16 19 1 0 2 1 7 0 0 0 0 1 54 63 100 92 25 32 38 90 58 55 80 36 38 29 47
694 518 272 173 7 9 20 0 4 7 8 5 3 0 0 62 3 0 0 112 116 56 54 57 89 65 78 102 77 94 66 99
628 597 302 223 3 2 21 0 9 1 9 8 2 0 0 0 3 1 0 81 107 135 76 84 90 78 86 154 182 162 128 141
552 685 504 193 1 5 4 3 5 0 0 0 2 1 4 0 5 9 3 52 56 135 144 62 82 98 131 217 290 320 307 252
467 669 652 191 43 1 3 4 6 0 0 27 42 36 12 11 2 0 59 94 115 117 198 223 230 240 280 342 400 433 378 354
327 561 597 306 146 11 4 5 9 6 3 12 22 38 45 80 42 27 78 140 80 162 188 247 274 351 406 392 356 345 476 480
246 462 590 417 204 36 3 5 28 56 48 17 17 17 23 27 56 59 81 127 96 94 140 184 222 221 222 250 267 339 393 564
198 341 478 508 317 98 0 14 35 57 48 65 36 15 12 16 72 84 65 169 84 75 68 89 68 65 98 186 288 319 303 302
192 256 345 404 422 238 110 48 44 65 51 62 79 55 13 29 89 166 208 161 79 34 40 36 30 28 43 84 165 215 135 51
224 303 306 345 405 340 171 95 62 48 52 71 72 69 85 247 181 151 69 86 72 52 40 29 22 34 7 60 90 109 31 4
153 359 364 332 340 391 259 151 118 47 59 63 46 76 70 85 56 43 10 11 17 25 27 12 5 0 0 2 5 30 5 8
18 267 483 428 387 360 271 225 151 170 164 171 175 122 10 5 2 5 0 0 2 19 14 10 17 11 31 59 50 21 11 29
4 20 291 513 414 441 303 240 172 153 184 203 177 174 161 158 3 13 21 3 4 14 18 38 89 145 50 43 60 117 77 94
0 10 24 298 496 381 400 275 192 128 120 125 122 105 105 134 138 100 87 51 31 29 98 92 48 47 149 183 110 79 87 102
1 1 0 7 214 358 416 295 183 125 107 86 62 58 58 75 135 123 87 88 80 46 34 42 176 240 283 39 52 55 74 138

GFSFLT1_con_mucape_087.txt.gz
CAPE
323 388 162 180 66 6 13 1 6 11 2 0 2 0 0 6 4 4 1 3 3 63 52 25 7 0 45 23 33 11 9 0
321 414 175 231 85 6 5 0 3 29 10 0 1 0 0 2 0 2 3 0 31 50 36 43 5 0 0 9 19 24 0 0
403 428 168 183 87 7 7 1 3 1 5 6 4 2 1 3 4 0 21 21 37 105 140 62 20 8 8 28 64 7 0 0
491 549 211 56 54 5 5 0 0 15 0 1 2 8 7 1 0 0 25 27 40 68 206 83 107 84 109 173 140 65 42 5
606 663 392 233 228 6 21 4 0 0 0 1 0 0 0 1 0 0 0 97 42 2 57 124 98 111 156 188 163 248 221 88
613 789 545 458 382 6 19 12 1 11 0 3 0 0 0 1 1 0 83 111 102 41 26 146 257 223 299 343 314 196 177 180
405 805 667 601 351 63 20 19 0 0 0 6 0 0 0 2 4 1 0 51 51 55 70 192 205 303 310 380 343 255 322 338
343 882 748 649 390 64 19 16 1 0 0 1 0 0 1 4 0 1 2 0 13 59 119 263 254 320 276 291 372 409 455 391
259 796 806 661 482 75 2 4 12 0 0 0 0 0 0 3 1 4 3 0 0 62 229 241 228 285 315 381 437 559 599 686
133 558 900 744 570 229 35 4 15 17 4 0 0 1 9 4 2 3 3 7 3 0 226 156 279 337 401 461 542 689 694 802
106 417 955 865 525 367 138 35 18 16 16 25 28 61 70 70 57 3 38 3 10 97 158 283 289 412 592 504 546 627 613 763
46 398 782 925 577 494 199 81 39 121 14 16 38 40 158 210 160 52 81 11 66 92 140 246 355 492 531 438 521 517 444 539
36 432 667 834 716 587 308 97 70 348 321 136 109 35 43 105 375 367 268 160 122 164 180 249 273 279 311 337 398 277 374 424
225 437 587 790 765 656 409 173 169 227 269 576 613 438 252 300 340 454 425 355 285 266 227 322 340 304 259 284 245 257 321 302
166 439 533 658 761 783 588 372 377 324 180 244 523 635 635 612 450 236 220 182 270 273 323 351 330 238 185 177 130 201 240 250
11 250 550 566 596 910 882 735 503 338 168 209 407 567 444 402 532 491 221 95 227 308 289 284 295 208 135 225 165 161 171 127
3 7 213 613 549 574 943 918 779 494 337 422 221 263 171 434 469 440 483 362 261 231 185 244 286 92 12 0 0 184 80 90
3 6 4 97 620 593 709 729 841 688 491 293 205 154 138 239 117 89 212 221 201 193 200 166 193 221 60 85 74 67 134 154
0 0 0 1 40 598 615 616 628 755 614 433 395 288 166 130 138 130 211 238 150 89 43 29 14 12 57 70 60 128 174 82

GFSFLT1_con_mucape_093.txt.gz
CAPE
76 250 250 299 249 139 0 0 2 3 4 0 0 18 11 11 13 36 43 17 13 14 23 3 23 4 22 15 2 0 0 0
104 210 194 240 214 92 0 2 4 1 0 0 8 7 8 0 0 0 0 13 17 37 11 1 40 25 19 8 0 0 0 0
101 202 208 242 203 64 0 1 5 5 0 5 0 0 0 0 0 0 8 18 9 16 2 17 0 62 57 11 0 0 0 0
149 180 168 208 167 55 10 0 12 2 1 0 0 0 0 0 0 0 10 10 38 23 3 3 53 76 61 2 0 7 0 0
180 172 127 200 177 56 20 0 3 6 0 0 0 0 0 0 0 3 15 13 12 5 2 7 4 78 21 0 16 0 0 0
168 184 154 229 181 40 31 0 2 3 4 0 0 0 0 1 1 0 9 5 3 3 2 1 0 0 0 8 0 0 0 0
246 249 229 229 215 35 1 0 3 4 4 0 0 0 0 2 10 15 3 0 7 10 3 3 4 0 0 0 2 12 9 4
277 281 299 304 290 20 0 0 17 2 3 0 0 0 3 3 2 6 0 0 0 6 1 1 0 1 30 5 16 58 31 31
362 390 410 429 355 80 16 0 13 3 4 0 0 0 2 9 0 0 0 1 0 0 0 0 15 9 26 40 31 9 49 41
447 484 489 545 435 179 56 28 3 2 4 0 0 0 0 0 0 0 6 2 1 0 0 2 2 25 34 56 24 17 38 12
547 520 557 611 473 236 179 94 0 2 4 3 1 0 2 0 0 0 0 2 12 0 0 0 5 25 40 25 54 36 69 85
287 576 631 616 549 440 277 105 0 1 5 3 0 0 3 0 0 0 0 0 12 5 0 0 2 5 26 31 26 55 88 73
23 687 669 659 629 591 350 181 8 4 8 4 4 0 0 0 0 0 0 0 2 10 11 2 0 0 5 30 41 46 60 95
70 761 726 727 721 665 502 343 41 0 6 5 2 1 2 0 0 0 0 0 0 0 5 4 14 5 9 13 29 40 64 86
226 908 859 821 781 713 605 500 252 1 0 2 1 2 1 3 0 0 0 0 0 0 0 0 0 1 4 19 20 8 13 21
107 473 987 887 795 765 760 739 534 115 0 0 1 3 4 3 1 0 0 0 0 0 0 0 0 0 0 1 23 52 70 72
6 93 469 1035 1005 862 828 792 675 404 191 17 2 0 0 42 11 10 1 0 0 0 0 0 0 0 0 0 0 12 53 99
5 18 5 91 754 884 838 813 724 661 567 424 108 102 35 0 0 6 51 67 75 45 37 27 11 1 0 0 4 53 81 109
30 26 10 12 19 201 743 830 839 746 663 581 504 231 231 159 65 30 46 44 62 151 152 154 122 76 60 55 100 121 148 156

GFSFLT1_con_mucape_096.txt.gz
CAPE
0 19 185 250 242 195 235 257 67 0 2 3 4 14 39 45 67 48 29 20 11 20 6 8 0 0 0 0 0 0 0 0
0 120 180 202 222 246 246 185 26 0 0 3 4 0 41 100 74 55 67 42 20 24 17 5 7 0 0 0 0 0 0 0
1 234 199 230 228 196 176 159 19 0 0 1 0 1 20 34 47 57 43 14 24 49 35 21 6 5 0 0 0 0 0 0
9 282 234 242 221 134 150 130 16 0 0 0 1 5 0 0 0 1 6 23 31 21 50 24 5 6 0 5 3 1 0 0
28 282 220 203 184 179 194 123 18 0 0 1 0 0 0 0 0 0 0 3 25 54 28 23 2 3 0 40 7 4 0 0
2 248 202 208 185 190 167 80 14 0 0 1 0 0 0 0 0 5 0 3 11 7 12 20 13 5 0 52 4 5 0 0
3 133 197 247 194 177 144 44 10 0 0 0 0 0 0 0 0 0 0 1 5 10 20 4 4 4 24 61 24 5 3 0
10 91 227 260 185 174 144 28 3 0 0 1 0 0 0 0 6 1 3 5 4 2 5 2 2 0 0 15 38 52 2 0
20 102 240 273 198 185 140 14 2 0 0 0 0 0 0 6 5 3 13 4 3 10 0 0 0 0 9 1 5 33 23 0
81 144 264 297 239 245 200 18 0 0 0 0 0 0 0 5 3 7 6 3 1 0 12 6 3 2 3 1 1 2 30 38
156 198 275 315 298 330 262 76 0 2 0 0 0 0 0 0 6 0 0 0 5 0 0 7 1 0 0 5 14 19 14 27
345 330 356 391 440 454 356 149 8 0 0 0 1 0 0 0 0 0 0 2 0 5 0 0 0 0 6 0 4 18 22 20
473 414 403 419 510 563 450 286 45 15 1 1 1 1 0 0 0 0 0 0 0 11 0 0 0 3 6 30 27 15 12 5
38 566 554 498 588 640 538 458 274 39 0 4 7 2 0 0 0 0 0 0 1 2 0 0 0 0 0 0 2 4 14 15
38 509 637 614 639 664 624 575 437 135 11 1 10 2 2 2 0 4 0 0 0 0 0 0 0 0 0 0 0 0 10 16
109 615 616 671 692 696 700 682 557 394 130 0 1 2 6 3 3 5 1 0 0 0 0 0 0 0 0 0 0 0 0 2
0 559 786 772 814 772 709 702 573 558 569 277 8 0 14 2 2 1 3 0 0 0 0 0 0 0 0 0 1 0 7 12
33 245 622 858 762 593 649 613 516 553 565 436 333 164 1 4 4 2 3 0 0 0 0 0 0 0 0 0 0 3 5 2
10 26 65 139 197 463 623 640 532 469 450 489 469 346 269 129 0 0 15 41 1 2 0 0 1 3 2 6 3 2 0 0

GFSFLT1_con_mucape_102.txt.gz
CAPE
0 0 0 0 0 18 105 95 404 400 282 113 127 90 57 465 360 207 76 32 41 52 46 38 38 5 6 44 87 66 52 2
0 0 0 0 0 0 54 111 362 385 214 98 52 28 137 178 310 54 47 38 52 32 42 50 40 7 6 3 68 0 53 2
0 0 0 0 0 0 17 71 338 316 194 93 27 1 3 10 30 87 51 58 38 49 45 8 4 15 5 2 83 78 45 28
0 0 0 0 0 0 2 29 314 282 178 62 8 1 3 1 16 39 23 47 36 67 47 31 4 2 0 1 76 95 27 27
0 0 0 0 0 0 0 21 292 281 122 54 3 0 0 0 0 15 25 32 40 89 21 21 21 18 11 2 18 67 31 9
0 0 0 0 0 0 0 18 306 204 84 34 2 0 0 0 0 0 47 23 8 22 6 59 18 0 0 0 0 1 34 24
0 0 0 0 0 0 2 95 284 121 78 33 1 0 0 0 0 0 0 1 11 12 9 43 49 8 3 6 0 0 8 23
0 0 0 0 0 0 5 129 200 98 69 37 0 0 0 0 0 0 0 0 0 3 7 10 6 27 27 0 0 1 50 55
0 0 0 0 0 0 0 69 144 102 69 32 0 0 0 0 0 0 0 0 0 0 0 21 11 13 14 2 0 0 5 95
0 0 15 0 0 0 6 62 136 119 102 31 0 0 0 0 0 0 0 0 0 0 10 10 26 9 1 16 2 1 0 32
0 0 0 0 0 0 6 27 158 135 131 16 0 0 0 0 0 0 0 0 0 0 5 9 3 6 17 6 3 0 0 0
0 10 26 42 0 0 2 8 156 139 110 0 0 0 0 0 0 0 0 0 0 0 0 0 0 0 0 3 1 4 0 0
3 5 0 32 108 15 11 15 174 166 93 0 0 0 0 0 0 0 0 0 0 0 0 0 0 0 0 0 0 0 1 0
0 110 0 98 224 48 20 76 204 165 120 0 0 0 0 0 0 0 0 0 0 0 0 0 0 10 11 1 1 0 34 0
3 205 202 167 263 93 22 93 255 202 155 16 0 0 0 0 0 0 0 0 0 0 0 0 0 0 5 1 2 1 2 1
0 186 305 321 305 319 193 177 265 191 147 96 11 0 0 0 0 0 0 0 0 0 0 0 0 0 3 0 0 2 1 1
0 8 108 226 266 207 374 293 264 144 182 183 107 34 0 0 0 0 0 0 0 0 0 0 0 0 0 0 0 0 0 0
0 1 6 26 101 130 194 207 201 149 64 58 74 90 64 37 8 0 3 2 3 4 3 2 0 0 0 0 0 0 0 0
21 0 0 1 11 78 85 70 74 71 12 24 47 47 48 71 72 56 14 1 1 2 4 5 1 1 0 0 0 0 0 0

GFSFLT1_con_mucape_105.txt.gz
CAPE
0 0 0 0 0 0 39 153 192 144 325 393 257 255 279 143 73 221 51 2 81 89 49 46 36 22 5 2 4 7 17 93
0 0 0 0 0 0 9 75 119 50 276 311 273 180 274 41 479 87 107 308 126 56 55 33 53 41 2 6 6 0 24 84
0 0 0 0 0 0 1 26 18 130 240 347 346 157 49 51 117 3 132 96 41 49 65 53 47 34 45 8 5 0 56 61
0 0 0 0 0 0 0 2 2 103 198 361 309 149 66 15 112 62 74 54 54 47 41 14 33 5 3 8 2 19 0 17
0 0 0 0 0 0 0 4 3 33 228 379 308 157 68 0 1 29 27 55 54 39 34 32 5 0 0 4 2 0 0 0
0 0 0 0 0 0 0 2 56 18 216 349 272 169 53 0 1 0 8 34 48 41 14 30 4 5 13 19 9 0 0 0
0 0 0 0 0 0 3 0 33 16 143 310 268 146 30 0 1 0 0 17 30 14 3 16 7 8 6 1 4 3 2 0
0 0 0 0 0 4 6 0 24 23 104 298 261 115 30 0 1 1 0 0 7 23 1 14 6 3 5 12 8 4 0 0
0 0 0 0 0 0 7 1 10 17 79 309 199 98 9 1 3 0 0 0 0 5 7 9 5 13 16 8 12 11 0 19
0 0 0 0 0 2 9 3 8 2 196 268 156 110 0 2 0 0 0 0 0 0 0 0 13 1 17 9 1 4 3 0
0 0 0 0 0 9 0 2 31 6 213 197 139 117 0 0 0 0 0 0 0 0 0 0 18 2 23 20 15 2 1 0
0 0 0 0 0 16 0 2 3 16 121 206 160 49 0 0 0 0 0 0 0 0 0 0 9 7 1 5 2 2 1 0
0 0 0 0 0 19 32 0 0 14 37 231 183 4 0 0 0 0 0 0 0 0 0 0 0 3 7 0 0 0 5 5
0 2 75 69 131 301 115 16 23 14 216 259 143 0 0 0 0 0 0 0 0 0 0 0 0 0 0 0 0 0 0 1
0 1 149 145 189 324 196 41 33 93 280 222 101 0 0 0 0 0 0 0 0 0 0 9 3 0 0 4 2 0 0 0
0 0 82 161 138 140 125 69 80 173 260 195 70 0 0 0 0 0 0 0 0 0 0 0 0 18 0 0 3 7 5 5
0 0 0 125 15 51 68 102 80 130 175 172 81 1 0 0 0 0 0 0 0 0 0 0 0 0 0 0 0 6 7 9
3 0 0 21 77 68 46 57 65 99 88 49 58 62 17 2 0 0 0 0 0 0 0 0 0 0 0 0 0 0 0 0
18 0 0 2 27 45 56 71 81 43 3 4 27 61 176 105 28 12 4 0 1 3 3 1 2 2 1 0 0 0 0 0

GFSFLT1_con_mucape_108.txt.gz
CAPE
0 0 0 0 0 0 0 207 833 1027 1771 1281 571 678 838 781 842 649 655 509 292 465 492 210 99 47 45 20 18 10 7 11
0 0 0 0 0 0 0 19 567 774 1003 632 449 299 604 511 708 544 583 379 490 151 191 153 94 35 25 20 2 0 27 2
0 0 0 0 0 0 0 109 521 763 562 413 501 385 419 359 424 641 306 306 215 27 82 64 38 20 16 11 4 0 2 9
0 0 0 0 0 0 0 116 404 711 677 467 458 421 287 316 266 355 289 165 69 41 79 44 49 15 26 1 15 4 0 4
0 0 0 0 0 0 2 67 302 539 628 379 553 522 291 319 203 86 123 59 25 30 31 41 46 25 20 30 1 3 6 0
0 0 0 0 0 31 41 91 231 200 476 478 585 771 682 546 397 160 19 172 40 29 15 30 14 17 3 1 0 3 5 0
0 0 0 0 0 0 204 165 135 52 142 561 582 926 702 285 81 34 5 35 20 12 4 14 12 17 2 2 2 1 0 0
0 0 0 0 0 0 95 159 69 13 23 575 464 822 486 309 154 21 4 3 16 36 1 24 1 6 4 1 3 0 0 3
0 0 0 0 0 0 13 152 15 5 14 338 289 259 451 225 87 5 7 12 26 3 2 19 2 7 3 1 7 1 0 0
0 0 0 0 0 0 2 66 5 9 10 255 54 249 296 193 72 3 11 11 19 38 8 6 13 6 5 4 3 5 8 3
0 0 0 0 0 0 0 85 5 9 1 136 31 338 306 153 33 7 13 0 7 0 34 4 4 11 6 12 6 7 6 2
5 4 0 0 0 0 3 8 1 2 1 55 143 386 257 140 9 10 0 8 9 0 43 0 0 0 14 10 2 27 7 9
10 3 0 0 0 2 3 129 8 6 0 100 237 372 234 119 9 0 0 0 0 0 0 0 0 0 4 14 0 10 11 9
7 0 0 0 0 116 4 159 14 2 3 64 281 346 241 12 8 0 0 0 0 0 0 0 7 8 1 6 8 1 0 1
0 0 0 0 26 29 92 77 12 4 8 49 325 267 176 7 7 0 0 0 0 0 0 0 0 1 0 1 1 0 7 1
0 0 0 0 16 230 76 71 139 118 77 193 314 234 3 7 3 0 0 0 0 0 0 0 2 0 0 0 0 0 0 0
0 0 0 0 12 279 102 109 89 44 130 224 186 101 6 5 6 0 0 0 0 0 0 0 0 0 0 0 1 0 5 3
0 0 0 0 2 57 75 59 136 45 124 111 157 10 0 0 1 5 0 0 0 0 0 0 0 0 0 0 0 0 0 0
0 0 0 0 0 25 10 33 51 108 81 91 128 55 2 1 0 0 0 1 7 0 0 1 2 2 1 2 0 0 12 5

GFSFLT1_con_mucape_111.txt.gz
CAPE
0 0 0 0 0 0 0 74 1132 1735 2175 2609 2040 1548 1367 1309 1196 1144 1230 1226 1024 1232 1083 1260 988 373 119 84 40 53 18 35
0 0 0 0 0 0 0 0 221 1366 1347 1867 2212 1264 1031 1045 1386 1215 1045 917 820 687 898 652 376 28 75 53 33 2 14 22
0 0 0 0 0 0 0 0 0 258 965 1331 1772 1013 1016 1004 1046 1291 1073 1033 694 607 625 325 48 74 62 43 8 8 23 7
0 0 0 0 0 0 0 0 4 232 789 1315 1000 819 1048 1000 837 1025 995 898 593 721 539 153 34 48 22 18 17 19 1 9
0 0 0 0 0 0 2 0 45 213 814 1132 773 739 542 636 785 790 823 804 663 404 314 18 24 108 20 2 14 5 3 1
0 0 0 0 0 0 0 130 135 222 571 1073 952 616 877 1028 959 895 851 634 371 452 170 4 143 25 26 2 9 14 3 6
0 0 0 0 0 0 0 83 276 261 563 833 986 697 1233 1132 1210 1031 837 590 571 242 97 15 16 27 20 9 1 13 0 0
0 0 0 0 0 0 0 0 178 342 483 461 795 759 1301 1426 1380 1020 528 357 321 144 7 7 4 6 30 6 4 0 4 6
0 1 1 0 0 0 0 0 0 274 305 143 438 592 820 1154 945 624 311 156 179 13 4 4 1 2 4 2 14 5 2 0
17 10 5 0 0 0 0 0 0 90 266 140 317 447 638 1053 1088 751 252 95 22 40 14 16 17 2 0 0 0 3 3 0
7 14 5 0 0 0 0 0 0 32 175 68 151 302 719 898 882 393 169 37 20 21 7 0 3 2 5 7 6 0 0 0
31 12 8 1 0 0 0 0 0 142 71 21 43 278 400 672 567 251 155 7 14 20 36 10 0 0 2 0 9 23 6 3
4 12 12 7 0 0 0 0 8 51 6 15 56 202 174 508 313 247 7 17 11 10 21 0 0 0 1 15 13 13 6 3
1 3 0 0 0 0 0 0 8 12 72 7 6 275 505 383 341 236 6 11 4 9 2 13 2 0 1 17 2 7 2 0
0 0 0 0 0 0 0 0 9 21 23 43 21 421 457 446 343 25 2 2 4 0 0 2 0 0 0 0 0 0 1 0
0 0 0 0 0 0 0 92 16 16 48 65 181 204 436 405 307 9 2 5 1 0 0 2 2 0 0 0 0 3 7 5
0 0 0 0 0 0 0 6 14 7 64 70 93 366 393 301 65 4 15 3 0 0 0 0 0 0 0 0 0 0 0 0
0 0 0 0 0 0 1 39 19 65 172 287 296 196 254 248 6 14 6 6 0 0 0 2 3 13 0 0 0 1 1 0
0 0 0 0 0 0 0 17 54 130 217 206 178 181 147 2 7 31 19 8 5 0 0 0 5 15 0 0 0 0 0 0

GFSFLT1_con_mucape_114.txt.gz
CAPE
0 0 0 0 0 0 205 1592 2110 2692 2393 2266 2500 2078 1750 1557 1496 1488 1426 1693 1567 1415 1100 1282 1188 836 491 365 250 296 133 120
0 0 0 0 0 0 0 110 1684 2088 2201 2444 2297 2233 1812 1416 1322 1223 1089 1114 1582 985 901 957 740 478 317 156 92 97 45 62
0 0 0 0 0 1 3 0 0 761 1635 1611 2031 2081 1834 1449 1139 1224 1163 1169 1105 1155 874 564 539 298 53 102 18 18 30 17
0 1 3 12 2 19 0 0 1 43 2 1103 1439 1715 1726 1492 944 681 1286 1078 860 679 535 403 292 220 374 3 37 14 6 2
0 2 10 13 4 23 0 31 31 34 376 428 1324 1276 1250 1036 812 568 1006 1206 984 730 522 411 241 1 9 68 39 5 2 0
0 4 8 3 0 4 9 37 112 92 316 546 1184 1022 870 544 369 398 1181 1192 1092 1014 743 359 69 0 0 4 34 1 0 29
1 2 0 0 8 27 13 0 0 195 328 577 1163 947 733 492 570 456 740 1024 1157 948 717 246 5 2 33 7 12 1 4 3
0 0 0 13 24 44 21 0 0 0 486 315 999 1034 816 665 787 787 610 1008 1064 955 317 147 6 8 3 21 10 2 6 14
15 45 24 14 0 0 0 0 0 0 0 324 397 957 806 756 854 1001 833 754 1009 785 264 53 3 6 23 15 10 21 5 10
64 43 7 0 0 0 0 0 0 0 0 0 341 280 455 501 905 991 1039 735 826 655 115 88 7 6 8 4 8 39 4 0
29 0 0 0 0 0 0 0 0 0 0 0 123 97 177 357 607 825 1070 739 155 135 59 14 6 29 7 5 7 0 12 6
7 1 0 0 0 0 0 0 0 0 0 0 74 29 95 259 434 664 840 516 219 139 4 11 22 2 1 0 0 5 3 4
9 0 0 0 0 0 0 0 0 0 0 42 70 5 12 165 445 770 690 590 177 131 1 3 5 3 5 7 9 4 9 2
0 0 0 0 0 0 0 0 0 0 5 31 18 19 6 35 361 639 672 243 253 64 27 4 2 7 7 0 9 1 9 6
0 0 0 0 0 0 0 0 0 0 13 7 10 9 31 2 372 486 620 236 168 24 3 3 3 0 1 5 1 4 5 8
0 0 0 0 0 0 0 0 0 0 4 8 10 10 5 24 195 404 459 298 46 8 7 1 0 0 0 0 0 0 0 2
0 0 0 0 0 0 0 0 0 0 16 5 13 15 9 126 247 616 364 288 80 5 7 0 0 0 2 0 0 2 0 3
0 0 0 0 0 0 0 0 0 0 14 19 47 38 78 180 388 496 416 40 32 4 6 2 4 4 0 0 0 0 0 0
0 0 0 0 0 0 0 0 0 0 1 14 8 64 111 174 459 547 152 54 20 25 0 2 4 3 0 0 0 0 5 0

GFSFLT1_con_mucape_117.txt.gz
CAPE
0 0 0 0 0 0 611 1332 1804 1983 2096 2071 1950 1611 1619 1934 1897 1789 1648 1498 1587 1730 1574 1406 1085 907 733 554 486 413 289 226
0 0 0 0 0 0 69 1998 1866 1961 2135 2089 2148 2000 1760 1574 1490 1785 1643 1437 1354 1514 1573 1305 1261 929 656 555 459 704 220 99
0 0 0 0 0 0 2 1817 2319 2102 2065 1932 1814 2174 2177 2071 1650 1303 1513 1512 1262 1149 1834 1542 1364 1090 741 409 506 197 324 152
0 0 0 0 0 0 0 0 1233 2290 2216 2185 2015 1813 2005 2144 1964 1603 1363 1171 1132 980 950 1599 1233 826 443 446 372 201 20 8
0 0 0 0 0 0 0 0 0 0 160 1635 1862 1873 1982 1945 1835 1667 1368 1121 1225 826 753 1215 1081 661 228 9 65 22 26 20
0 0 0 0 2 3 15 2 1 0 0 0 914 1251 1321 1546 1786 1718 1645 1480 1135 1243 1170 673 587 494 278 27 3 169 14 15
2 3 11 0 0 0 0 0 0 0 0 0 799 947 1007 1083 1114 971 780 558 803 1069 1120 1112 977 291 158 38 1 5 18 11
32 8 0 0 0 0 0 0 0 0 0 0 0 503 864 890 848 671 582 305 367 732 763 1032 973 790 425 23 9 16 6 1
9 22 7 0 0 0 0 0 0 0 0 0 0 0 343 858 794 553 428 327 440 514 872 812 1056 783 635 3 9 18 14 8
53 11 5 0 0 0 0 0 0 0 0 0 0 0 0 499 634 447 575 807 784 845 807 989 1112 773 442 62 9 54 6 8
4 1 11 8 6 0 0 0 0 0 0 0 0 0 0 166 460 302 404 668 1024 967 631 973 857 871 421 7 32 9 7 3
1 1 2 11 7 0 0 0 0 0 0 0 0 0 0 0 257 136 418 697 877 940 623 485 634 396 169 14 6 10 18 7
28 16 13 3 0 0 0 0 0 0 0 0 0 1 19 0 32 121 326 593 789 1201 753 268 140 49 28 6 4 19 2 0
23 9 2 0 0 0 0 0 0 0 0 0 0 0 71 77 48 99 237 497 677 925 373 229 112 1 5 9 1 4 0 2
9 0 0 0 0 0 0 0 0 0 0 0 0 0 12 77 16 97 209 453 393 692 451 173 36 6 8 5 13 7 8 0
0 0 0 0 0 0 0 0 0 0 0 0 0 0 6 16 25 49 125 278 436 585 192 123 22 9 8 4 9 2 3 9
0 0 0 0 0 0 0 0 0 0 0 0 0 7 11 11 14 43 172 312 376 338 160 67 26 5 5 2 3 14 7 0
0 0 0 0 0 0 0 0 0 0 0 0 0 7 1 17 11 32 81 212 271 345 237 42 9 5 0 0 0 4 7 4
0 0 0 0 0 0 0 0 0 0 0 0 2 12 11 17 37 41 57 139 177 123 97 57 3 0 0 0 0 4 0 0

GFSFLT1_con_mucape_123.txt.gz
CAPE
0 0 0 485 958 1254 1374 1598 1845 1709 1507 1197 1310 1304 1283 1261 1091 944 1076 943 1214 1582 1611 1458 1298 1210 1102 1048 1054 981 844 680
0 0 0 0 0 663 1320 1428 1700 1805 1793 1661 1567 1399 1392 1424 1497 1648 1643 1425 1391 1245 1516 1672 1688 1388 1331 1188 1047 956 840 682
0 0 0 0 0 0 307 1161 1324 1645 1790 1770 1535 1521 1478 1495 1678 1754 1744 1695 1677 1503 1297 1516 1666 1809 1902 1313 1059 1398 1381 909
0 4 0 0 0 0 0 365 838 1390 1695 1749 1724 1629 1549 1666 1734 1917 1886 1864 1822 1716 1600 1661 1759 1379 1179 909 1198 1217 1292 520
0 0 0 0 0 154 567 785 1061 1406 1724 1856 1822 1711 1399 1530 1684 2029 1977 1817 1964 1813 1803 1906 1887 1698 1425 901 1180 904 950 875
0 0 0 0 112 646 970 1226 1527 1701 1946 1980 1821 1461 1113 959 1531 1596 1702 1793 1847 1829 1810 1746 1600 1336 1318 1107 1161 987 1130 701
0 1 57 291 656 1072 1336 1204 1060 1107 1362 1442 1274 1242 1147 1170 1322 1478 1675 1661 1628 1653 1688 1570 1279 1269 1085 1006 1040 791 758 821
6 92 139 167 307 481 663 704 735 789 755 552 480 472 315 261 476 980 1373 1476 1537 1348 1345 1419 1266 1028 1049 763 437 646 900 906
67 95 133 144 88 66 61 52 51 61 44 18 10 3 0 1 14 21 78 434 978 1116 1116 1074 1138 972 970 741 527 451 455 717
133 100 84 69 45 24 12 3 1 2 0 0 0 0 0 0 0 0 0 4 167 555 718 831 929 833 312 423 648 599 658 491
37 42 18 12 14 15 3 2 2 3 2 1 0 0 0 0 0 0 0 0 6 90 547 656 516 155 83 171 538 632 403 483
0 0 2 9 7 4 2 0 0 0 0 3 0 0 0 0 0 0 0 0 0 9 141 504 274 110 210 129 495 422 458 341
0 2 0 0 0 0 5 19 13 0 0 0 0 0 0 0 0 0 0 0 0 8 67 312 346 147 78 447 481 372 401 491
17 9 11 13 8 7 1 1 0 0 0 0 0 0 0 0 0 0 0 3 2 6 16 215 296 119 12 371 367 290 471 496
34 27 33 19 21 0 0 1 0 0 0 0 0 0 0 0 0 0 0 2 5 51 14 214 160 26 38 294 489 392 355 297
1 0 0 0 0 0 0 0 0 0 0 0 0 0 0 0 0 0 0 1 0 24 36 71 53 18 124 281 418 279 99 70
0 0 0 0 0 0 0 0 0 0 0 0 0 0 0 0 0 0 0 0 12 32 46 40 38 39 65 312 220 315 56 8
0 0 0 0 0 0 0 0 0 0 0 0 0 0 0 0 0 0 0 0 7 49 49 12 34 33 31 206 33 75 8 1
0 0 0 0 0 0 0 0 0 0 0 0 0 0 0 0 0 1 0 1 9 47 61 56 22 59 76 60 71 0 2 0

GFSFLT1_con_mucape_126.txt.gz
CAPE
0 0 0 656 1031 1192 1461 1527 896 543 481 639 606 513 485 518 507 525 617 781 857 1044 931 865 952 1055 933 899 915 816 671 730
0 0 0 0 751 908 1144 1655 1652 1339 820 768 766 696 657 613 559 503 511 560 767 902 960 1048 1055 1065 1076 1079 1135 1238 1096 812
0 0 0 0 0 555 1031 1266 1686 1683 1561 1306 1021 1091 934 894 879 914 860 658 975 894 993 1251 1408 1356 1312 1201 1131 1342 1088 924
0 0 0 0 0 0 519 1066 1408 1637 1668 1692 1605 1496 1382 1199 1249 1263 1317 1366 1560 1391 1299 1237 1290 1496 1537 1183 1052 964 831 618
0 0 0 0 0 0 0 350 980 1411 1724 1783 1882 1811 1666 1604 1321 1346 1438 1556 1670 1620 1490 1554 1305 1284 1476 1140 1062 781 664 687
0 0 0 0 3 0 0 170 900 1248 1719 1870 1894 1864 1846 1642 1440 1233 1015 898 1244 1437 1687 1784 1572 1550 1528 1505 1238 1056 570 630
0 0 0 0 19 97 117 375 843 1314 1666 1699 1736 1882 1727 1371 1134 789 406 33 793 1356 1744 1919 1906 1766 1584 1374 1267 911 721 711
0 0 8 89 287 411 657 860 717 769 1173 1732 1683 1231 1175 1180 792 275 114 227 919 1301 1484 1548 1639 1748 1432 1048 941 866 820 707
130 156 236 252 325 471 504 610 640 856 835 857 712 707 775 555 190 166 119 382 534 891 1255 1365 1374 1453 1278 903 781 716 755 583
263 342 434 447 505 546 524 575 539 485 491 406 283 179 85 57 35 17 22 29 23 79 469 972 1067 1062 1048 877 655 642 643 431
157 195 220 376 356 312 296 238 204 104 61 32 14 13 6 0 0 0 0 0 0 0 3 124 503 1245 1008 873 685 552 90 10
237 273 268 310 263 186 141 76 18 1 0 0 0 0 0 0 0 0 0 0 0 0 0 3 49 641 922 712 610 236 0 0
202 165 134 140 87 52 21 13 9 0 0 0 0 0 0 0 0 0 0 0 0 0 0 0 13 143 822 733 527 327 5 17
13 0 0 0 3 0 0 0 0 0 0 0 0 0 0 0 0 0 0 0 0 0 2 3 4 5 304 424 275 89 116 79
52 6 1 5 3 1 0 0 0 0 0 0 0 0 0 0 0 0 0 0 0 0 1 19 3 8 122 216 273 73 62 247
6 19 38 21 9 2 0 0 0 0 0 0 0 0 0 0 0 0 0 0 0 0 3 26 10 30 41 186 193 48 71 151
0 0 0 0 0 0 0 0 0 0 0 0 0 0 0 0 0 0 0 0 0 0 3 6 22 68 65 88 84 11 58 102
0 0 0 0 0 0 0 0 0 0 0 0 0 0 0 0 0 0 0 0 0 0 5 5 22 56 40 59 45 25 96 52
0 0 0 0 0 0 0 0 0 0 0 0 0 0 0 0 0 0 0 0 0 5 4 12 27 34 23 32 35 73 75 120

GFSFLT1_con_mucape_129.txt.gz
CAPE
0 0 0 0 45 1569 1364 952 1015 1282 1337 1087 808 454 518 417 482 484 888 1220 1338 1314 1209 749 1181 1069 845 787 758 647 622 614
0 0 0 0 0 1361 1863 1408 1077 1116 1257 1247 1039 929 667 652 904 1031 865 839 1160 1425 1118 1199 1050 789 768 748 736 618 573 482
0 0 0 0 0 838 1847 1995 1533 1071 1071 1303 1324 1386 1221 976 1027 982 1015 1119 898 1033 1007 962 729 714 721 767 711 747 705 580
0 0 0 0 0 0 1400 1960 1967 1695 1461 1483 1319 1326 1213 1286 1037 842 948 1015 1125 1182 1099 849 712 798 831 828 868 868 586 492
0 0 0 0 0 0 880 1634 2098 2166 2068 1842 1624 1516 1300 1441 1247 996 985 1097 1121 1027 1120 956 914 843 1034 1056 1074 1080 837 521
0 0 0 0 0 0 95 896 1474 1930 2145 2062 2041 1990 2160 1949 1649 1488 1423 1390 1048 939 746 687 892 879 1052 1169 1268 1222 1164 1154
0 0 0 0 0 0 0 197 942 1244 1554 1712 1914 1714 1728 1749 1623 1440 1634 1116 1062 746 326 8 198 645 961 1045 1154 1246 1041 1132
5 0 3 5 0 0 2 74 355 864 1330 1925 1877 1808 1752 1554 1492 1461 1346 932 670 385 64 61 435 784 829 874 942 914 924 732
32 84 122 192 164 59 66 93 157 364 767 1300 1409 1254 1217 1670 1274 1039 658 427 359 352 348 437 628 803 771 880 1212 902 696 710
104 167 192 191 211 203 173 214 202 272 527 427 481 1012 896 842 752 715 431 196 55 117 236 408 572 893 933 1192 1592 1186 718 469
148 126 201 256 361 337 333 474 473 498 524 376 319 233 190 124 51 11 14 43 85 89 116 124 195 826 1604 1421 1582 1449 1101 637
61 129 227 374 328 348 293 168 340 412 388 214 54 31 24 6 0 0 0 0 0 0 0 0 0 5 130 594 597 1079 1226 901
31 76 184 283 274 233 231 157 192 194 89 72 11 7 0 0 0 0 0 0 0 0 0 0 0 0 2 22 25 552 800 1048
63 42 85 84 161 245 263 197 84 3 3 0 0 0 0 0 0 0 0 0 0 0 0 0 0 2 6 15 21 11 395 555
22 18 8 2 49 16 1 13 24 4 5 1 0 0 0 0 0 0 0 0 0 0 0 0 0 0 10 11 20 29 15 345
0 0 2 32 0 0 1 1 0 0 0 0 0 0 0 0 0 0 0 0 0 0 0 0 0 0 0 3 19 36 44 168
0 0 0 0 0 0 1 2 0 0 0 0 0 0 0 0 0 0 0 0 0 0 0 0 0 0 0 11 1 33 20 69
0 0 0 0 0 0 0 0 0 0 0 0 0 0 0 0 0 0 0 0 0 0 0 0 0 0 4 33 6 39 38 51
0 0 0 0 0 0 0 0 0 0 0 0 0 0 0 0 0 0 0 0 0 0 0 0 1 1 3 34 44 49 72 17

GFSFLT1_con_mucape_132.txt.gz
CAPE
0 0 0 0 0 0 0 376 1389 1485 1476 1614 1677 1680 1749 1717 1804 1924 1863 1761 2123 1761 1675 1298 1874 1972 1767 1619 1562 1654 1507 1522
0 0 0 0 0 0 0 56 1517 1865 1647 1746 1568 1500 1162 1361 1444 1309 1501 1368 1873 1964 1474 1396 1955 1821 1728 1445 1483 1381 1483 1381
0 0 0 0 0 0 0 0 1238 1717 1817 1886 1881 1912 1333 1117 1068 1144 1240 1279 1491 1678 1470 1785 1704 1697 1816 1407 1504 1329 1349 1400
1 0 0 0 0 0 0 0 566 1603 1746 1851 1766 1978 1419 1124 1201 1328 1595 1587 1351 1609 1411 1672 1648 1581 1512 1438 1322 1160 977 1130
21 6 0 0 0 0 0 0 114 1568 1717 1679 1606 1755 1413 1274 1534 1313 1363 1553 1531 1715 1863 1637 1682 1371 1266 1086 1406 1413 1658 1106
13 0 40 0 0 0 0 0 0 1366 1974 1764 1878 1743 1730 1518 1396 1594 1836 1570 1566 1631 1680 1735 1115 1154 833 713 720 1058 1829 1881
13 25 104 189 92 38 6 0 2 1171 1984 2082 2163 1939 2040 2394 2234 2392 2046 1854 1469 1526 1076 827 823 468 121 64 759 877 983 1503
35 48 0 10 6 82 173 438 756 1438 1591 1861 2139 2434 2363 2311 2225 1797 1557 1473 1679 1777 1375 750 525 157 57 3 232 629 825 1027
41 13 22 41 40 3 9 226 928 1366 1617 1908 1902 1693 1357 1507 1634 1381 1430 1514 1872 1335 1396 925 538 450 327 419 391 634 1089 1033
71 121 110 170 229 240 146 337 718 1124 1420 1682 1736 1174 1331 1120 1225 1405 914 941 957 690 696 1032 826 635 795 817 842 804 874 866
54 51 109 111 360 446 409 375 618 827 929 807 967 1136 1020 789 987 997 892 792 523 350 159 53 265 469 826 1022 953 893 671 752
20 5 5 200 250 359 351 305 361 484 480 402 267 317 533 647 617 670 634 501 400 318 174 85 31 57 216 658 621 680 934 1054
0 21 19 3 179 178 189 115 33 270 122 88 74 56 61 79 87 53 4 0 0 0 0 0 0 0 0 0 38 305 496 551
0 0 18 157 224 96 67 45 10 6 185 84 19 5 5 6 10 5 1 0 0 0 0 0 0 0 0 0 0 2 118 90
0 0 0 0 37 227 283 103 0 1 3 33 6 6 27 14 10 0 0 0 0 0 0 0 0 0 0 0 1 4 14 74
0 0 0 0 0 1 3 4 5 0 5 1 0 0 0 0 0 0 0 0 0 0 0 0 0 0 0 3 8 17 24 48
0 0 0 0 0 0 0 0 0 0 2 0 0 0 0 0 0 0 0 0 0 0 0 0 0 0 0 0 0 0 22 49
0 0 0 0 0 0 0 0 0 0 0 0 0 0 0 0 0 0 0 0 0 0 0 0 0 0 0 0 0 0 5 52
0 0 0 0 0 0 0 0 0 0 0 0 0 0 0 0 0 0 0 0 0 0 0 0 0 0 0 0 0 0 3 3

GFSFLT1_con_mucape_135.txt.gz
CAPE
0 0 0 0 0 0 0 0 0 2345 2555 2377 2347 2509 2550 2264 2477 2273 2789 2364 2422 3219 2601 2805 2621 2548 2320 2424 2369 2160 1632 1446
0 0 0 0 0 0 0 0 0 452 2394 2302 2380 2599 2572 2230 2343 2492 2547 2147 2278 2383 2548 2628 2044 2624 2611 2012 2070 1877 1828 1568
0 0 0 0 0 0 0 0 0 0 2144 2327 2311 2541 2585 2497 2447 2543 2461 2822 2060 2231 1931 2233 1535 2127 2710 2731 1720 1488 1719 1658
0 0 0 0 10 0 0 0 0 0 35 2261 1913 2218 2477 2229 2033 2087 2305 2476 1820 1863 2195 2368 2418 2448 2374 2505 1591 1381 1490 1639
0 0 0 0 0 19 0 0 0 0 0 1624 1939 2077 2033 1852 1780 1897 1891 2028 1780 1546 1922 2352 2780 2488 2040 2014 1172 1455 1473 1297
0 0 0 0 0 0 47 0 0 0 0 947 2211 2098 2232 1990 1877 2024 2003 2388 2437 2000 1474 2259 2681 2521 1325 1083 1071 1058 1068 889
0 0 0 0 0 0 3 78 3 0 0 561 2183 2209 2314 1982 2029 2236 2034 2383 2401 2599 2436 2343 2293 1699 1496 936 715 687 1010 958
0 0 0 0 0 0 0 13 24 4 76 190 1970 1813 2065 2284 2166 2183 2471 2365 2227 2521 2137 2139 1879 1736 1366 369 156 201 53 433
0 0 0 0 0 0 4 30 65 84 104 295 771 860 1221 2032 2439 2885 2736 2437 1983 2159 2001 1484 1417 1409 540 399 209 112 0 300
0 0 0 15 50 70 62 153 175 384 249 382 272 789 1050 1148 1522 1761 1813 1416 1201 1143 1119 1209 1131 1117 832 847 782 357 240 411
0 0 0 0 41 79 130 122 272 401 661 426 619 806 998 978 1398 932 693 828 984 1028 1278 1229 1369 1039 1060 1390 1168 926 958 1021
0 0 0 0 0 91 174 192 307 405 574 561 546 683 779 757 579 310 285 162 428 892 902 963 1104 1285 1260 965 898 1207 992 1216
0 0 0 0 0 0 178 199 269 351 337 311 93 545 452 215 258 6 0 82 282 412 429 349 203 126 66 29 151 448 506 574
0 0 0 0 0 0 98 199 206 123 24 1 40 1 0 4 7 3 108 255 237 227 199 44 1 0 0 0 0 0 3 470
0 0 0 0 0 0 0 31 0 0 0 0 0 0 6 0 0 0 18 73 51 14 0 0 0 0 0 0 0 0 1 6
0 0 0 0 0 0 0 0 0 2 0 0 0 0 2 4 0 0 1 30 12 4 0 0 0 0 0 0 0 0 0 8
0 0 0 0 0 0 0 0 0 0 0 0 0 1 0 0 2 0 0 0 0 0 0 0 0 0 0 0 0 0 0 0
0 0 0 0 0 0 0 0 0 0 0 0 0 0 0 0 0 0 0 0 0 0 0 0 0 0 0 0 0 0 0 0
0 0 0 0 0 0 0 0 0 0 0 0 0 0 0 0 0 0 0 0 0 0 0 0 0 0 0 0 0 0 0 0

GFSFLT1_con_mucape_138.txt.gz
CAPE
0 0 0 0 0 0 0 0 0 0 5 2118 2029 1938 2002 1852 2016 1813 2739 2664 2249 2187 2173 2055 1924 1975 2017 1597 1674 1611 1196 945
0 0 0 0 0 0 0 0 0 0 0 941 1592 1609 1779 1724 1805 2020 2436 2430 2337 2314 2258 2117 1893 1926 2054 2038 1753 1746 1269 1481
0 0 0 0 0 0 0 0 0 0 0 0 1443 1481 1638 1679 1784 1846 1773 2205 1990 2002 2505 2044 1976 1822 2186 1927 1732 1655 1656 1399
0 0 0 0 0 0 0 0 0 0 0 0 0 1438 1235 1432 1493 1956 1793 2233 2057 1753 1984 2257 2051 1602 1850 2069 1486 1284 1116 1323
0 0 0 0 0 0 0 0 0 0 0 0 0 28 1012 1141 1294 1737 2035 2051 2074 1753 1745 1769 1940 1509 1320 1974 1884 1389 1044 1038
0 0 0 0 0 0 0 0 0 0 0 0 0 0 405 989 1421 1457 1958 1995 2202 1778 1617 1668 1788 1714 1421 2010 1868 1515 1136 1058
0 0 0 0 0 0 0 0 0 0 0 0 0 0 2 794 1056 1310 1435 1928 1962 1940 1687 1389 1962 1911 1881 1687 1706 1451 1075 973
0 0 0 0 0 0 0 0 0 0 0 0 2 0 0 97 798 1091 1098 1582 1529 1516 1314 1095 1262 1755 1805 1464 1297 1003 897 832
0 0 0 0 0 0 0 0 0 0 0 0 0 0 0 44 543 980 1008 1162 1585 1633 1303 1208 1365 1630 1584 1514 996 683 633 639
0 0 0 0 0 0 0 0 0 0 1 1 57 15 0 0 0 565 1010 1284 1702 1759 1759 1631 1886 1644 1353 1030 832 845 321 122
0 0 0 0 0 0 0 0 9 1 18 21 28 69 53 30 0 63 472 840 1061 1648 1701 1720 1734 1531 1276 1008 659 531 447 312
0 0 0 0 0 0 0 0 0 0 56 89 85 132 97 89 0 0 5 377 806 1164 1143 1127 826 834 965 1207 1062 853 830 604
0 0 0 0 0 0 0 0 0 0 22 114 84 24 233 115 240 6 260 384 877 901 764 828 498 432 668 899 1095 1115 1038 1016
0 0 0 0 0 0 0 0 0 0 0 61 38 95 96 77 15 0 103 63 164 242 217 199 17 161 280 581 513 624 571 630
0 0 0 0 0 0 0 0 0 0 0 5 0 81 0 2 0 1 103 16 7 40 97 9 23 110 82 95 11 39 12 0
0 0 0 0 0 0 0 0 0 0 0 0 0 0 0 17 0 0 0 2 0 0 17 18 24 21 0 0 0 5 0 0
0 0 0 0 0 0 0 0 0 0 0 0 0 0 0 0 0 0 0 0 0 0 0 0 0 0 0 0 0 0 0 0
0 0 0 0 0 0 0 0 0 0 0 0 0 0 0 0 0 0 0 0 0 0 0 0 0 0 0 0 0 0 0 0
0 0 0 0 0 0 0 0 0 0 0 0 0 0 0 0 0 0 0 0 0 0 0 0 0 0 0 0 0 0 0 0